New Orleans, LA

11:17 PM CDT on September 23, 2017 (GMT -0500)
New Orleans International

Weather History for KMSY - November, 2011

Change the Weather History Date:

Wednesday, November 23, 2011

  Actual Average Record
Temperature  
Mean Temperature 66 °F -  
Max Temperature 71 °F 69 °F 85 °F (1973)
Min Temperature 59 °F 49 °F 29 °F (1976)
Cooling Degree Days 1    
Growing Degree Days 16 (Base 50)    
Moisture  
Dew Point 55 °F    
Average Humidity 69    
Maximum Humidity 90    
Minimum Humidity 47    
Precipitation  
Precipitation 0.00 in - - ()
Sea Level Pressure  
Sea Level Pressure 30.16 in    
Wind  
Wind Speed 11 mph (North)    
Max Wind Speed 17 mph    
Max Gust Speed 25 mph    
Visibility 10 miles    
Events      
Averages and records for this station are not official NWS values.
T = Trace of Precipitation, MM = Missing Value Source: NWS Daily Summary

Daily Weather History Graph

Daily Weather History Graph

Search for Another Location

Airport or City:

Trip Planner

Search our weather history database for the weather conditions in past years. The results will help you decide how hot, cold, wet, or windy it might be!

Date:

Astronomy

Nov. 23, 2011 Rise Set
Actual Time 6:32 AM CST 5:02 PM CST
Civil Twilight 6:06 AM CST 5:27 PM CST
Nautical Twilight 5:37 AM CST 5:56 PM CST
Astronomical Twilight 5:08 AM CST 6:25 PM CST
Moon 4:40 AM CST (11/23) 3:42 PM CST (11/23)
Length of Visible Light 11h 20m
Length of Day
10h 29m
Waning Crescent, 3% of the Moon is Illuminated
Nov 23
Waning Crescent
Nov 25
New
Dec 2
First Quarter
Dec 10
Full
Dec 17
Last Quarter

Hourly Weather History & Observations

Time (CST) Temp. Dew Point Humidity Pressure Visibility Wind Dir Wind Speed Gust Speed Precip Events Conditions
12:25 AM 69.8 °F 64.4 °F 83% 30.06 in 10.0 mi NW 6.9 mph - N/A   Overcast
12:53 AM 68.0 °F 64.9 °F 90% 30.07 in 10.0 mi NNW 6.9 mph - N/A   Overcast
1:53 AM 66.9 °F 63.0 °F 87% 30.08 in 10.0 mi NNW 12.7 mph 19.6 mph 0.00 in   Overcast
2:53 AM 66.0 °F 61.0 °F 84% 30.08 in 10.0 mi North 10.4 mph - N/A   Mostly Cloudy
3:53 AM 64.9 °F 60.1 °F 84% 30.09 in 10.0 mi North 11.5 mph - N/A   Mostly Cloudy
4:22 AM 64.4 °F 59.0 °F 83% 30.08 in 10.0 mi North 15.0 mph 19.6 mph N/A   Mostly Cloudy
4:53 AM 64.9 °F 59.0 °F 81% 30.10 in 10.0 mi NNW 12.7 mph - N/A   Overcast
5:53 AM 62.1 °F 57.0 °F 84% 30.13 in 10.0 mi North 16.1 mph 25.3 mph N/A   Overcast
6:53 AM 61.0 °F 54.0 °F 78% 30.17 in 10.0 mi North 16.1 mph - N/A   Overcast
7:53 AM 62.1 °F 53.1 °F 72% 30.19 in 10.0 mi North 16.1 mph 21.9 mph N/A   Overcast
8:53 AM 63.0 °F 53.1 °F 70% 30.20 in 10.0 mi North 15.0 mph - N/A   Scattered Clouds
9:53 AM 64.9 °F 54.0 °F 68% 30.20 in 10.0 mi North 12.7 mph - N/A   Partly Cloudy
10:53 AM 66.9 °F 53.1 °F 61% 30.19 in 10.0 mi North 9.2 mph - N/A   Partly Cloudy
11:53 AM 69.1 °F 53.1 °F 57% 30.17 in 10.0 mi North 12.7 mph - N/A   Clear
12:53 PM 70.0 °F 51.1 °F 51% 30.16 in 10.0 mi North 10.4 mph - N/A   Clear
1:53 PM 71.1 °F 50.0 °F 47% 30.14 in 10.0 mi North 11.5 mph - N/A   Clear
2:53 PM 71.1 °F 50.0 °F 47% 30.14 in 10.0 mi North 11.5 mph - N/A   Clear
3:53 PM 70.0 °F 50.0 °F 49% 30.15 in 10.0 mi NNE 10.4 mph - N/A   Clear
4:53 PM 66.9 °F 51.1 °F 57% 30.17 in 10.0 mi North 9.2 mph - N/A   Clear
5:53 PM 64.9 °F 53.1 °F 65% 30.19 in 10.0 mi North 6.9 mph - N/A   Clear
6:53 PM 64.0 °F 53.1 °F 67% 30.20 in 10.0 mi North 9.2 mph - N/A   Clear
7:53 PM 64.0 °F 53.1 °F 67% 30.23 in 10.0 mi North 10.4 mph - N/A   Clear
8:53 PM 63.0 °F 52.0 °F 67% 30.24 in 10.0 mi NNE 12.7 mph - N/A   Clear
9:53 PM 62.1 °F 50.0 °F 65% 30.25 in 10.0 mi NE 13.8 mph - N/A   Clear
10:53 PM 61.0 °F 50.0 °F 67% 30.25 in 10.0 mi NNE 17.3 mph 24.2 mph N/A   Clear
11:53 PM 59.0 °F 50.0 °F 72% 30.25 in 10.0 mi NE 13.8 mph - N/A   Clear